Whidbey Island, WA

11:15 PM PDT on September 25, 2017 (GMT -0700)
Whidbey Island Naval Air Station

Weather History for KNUW - July, 2013

Change the Weather History Date:

Saturday, July 20, 2013

  Actual Average Record
Temperature  
Mean Temperature 56 °F -  
Max Temperature 62 °F 64 °F 75 °F (2003)
Min Temperature 53 °F 49 °F 50 °F (1998)
Degree Days  
Heating Degree Days 8    
Growing Degree Days 6 (Base 50)    
Moisture  
Dew Point 52 °F    
Average Humidity 87    
Maximum Humidity 96    
Minimum Humidity 75    
Precipitation  
Precipitation 0.00 in - - ()
Sea Level Pressure  
Sea Level Pressure 30.07 in    
Wind  
Wind Speed 9 mph (SW)    
Max Wind Speed 14 mph    
Max Gust Speed 21 mph    
Visibility 8 miles    
Events      
Averages and records for this station are not official NWS values.
T = Trace of Precipitation, MM = Missing Value Source: NWS Daily Summary

Daily Weather History Graph

Daily Weather History Graph

Search for Another Location

Airport or City:

Trip Planner

Search our weather history database for the weather conditions in past years. The results will help you decide how hot, cold, wet, or windy it might be!

Date:

Astronomy

Jul. 20, 2013 Rise Set
Actual Time 5:31 AM PDT 9:02 PM PDT
Civil Twilight 4:52 AM PDT 9:40 PM PDT
Nautical Twilight 4:00 AM PDT 10:32 PM PDT
Astronomical Twilight 2:49 AM PDT 11:41 PM PDT
Moon 7:09 PM PDT (7/20) 3:17 AM PDT (7/20)
Length of Visible Light 16h 48m
Length of Day
15h 30m
Waxing Gibbous, 94% of the Moon is Illuminated
Jul 20
Waxing Gibbous
Jul 22
Full
Jul 29
Last Quarter
Aug 6
New
Aug 14
First Quarter

Hourly Weather History & Observations

Time (PDT) Temp. Dew Point Humidity Pressure Visibility Wind Dir Wind Speed Gust Speed Precip Events Conditions
12:56 AM 54.0 °F 51.1 °F 90% 30.10 in 10.0 mi SSW 9.2 mph - N/A   Scattered Clouds
1:56 AM 54.0 °F 51.1 °F 90% 30.09 in 6.0 mi SSW 11.5 mph 16.1 mph N/A   Mostly Cloudy
2:56 AM 53.1 °F 51.1 °F 93% 30.09 in 6.0 mi SSW 10.4 mph - N/A   Mostly Cloudy
3:38 AM 53.6 °F 51.8 °F 94% 30.08 in 4.0 mi SW 11.5 mph 17.3 mph N/A   Overcast
3:56 AM 53.1 °F 52.0 °F 96% 30.09 in 4.0 mi SW 11.5 mph - N/A   Overcast
4:56 AM 53.1 °F 52.0 °F 96% 30.10 in 2.0 mi SW 12.7 mph - N/A   Overcast
5:56 AM 54.0 °F 52.0 °F 93% 30.10 in 4.0 mi SW 13.8 mph - N/A   Overcast
6:56 AM 54.0 °F 52.0 °F 93% 30.11 in 6.0 mi SW 11.5 mph - N/A   Overcast
7:56 AM 55.0 °F 52.0 °F 89% 30.12 in 7.0 mi SW 6.9 mph - N/A   Overcast
8:20 AM 55.4 °F 51.8 °F 88% 30.10 in 10.0 mi SW 10.4 mph 16.1 mph N/A   Overcast
8:56 AM 55.0 °F 52.0 °F 89% 30.12 in 5.0 mi WSW 8.1 mph 20.7 mph N/A   Overcast
9:56 AM 55.9 °F 52.0 °F 87% 30.12 in 7.0 mi WSW 6.9 mph - N/A   Overcast
10:56 AM 57.0 °F 52.0 °F 83% 30.11 in 10.0 mi West 5.8 mph - N/A   Overcast
11:56 AM 57.0 °F 53.1 °F 87% 30.11 in 7.0 mi West 8.1 mph - N/A   Overcast
12:56 PM 60.1 °F 53.1 °F 78% 30.10 in 10.0 mi Variable 4.6 mph - N/A   Overcast
1:56 PM 60.1 °F 53.1 °F 78% 30.09 in 10.0 mi West 6.9 mph - N/A   Mostly Cloudy
2:56 PM 60.1 °F 53.1 °F 78% 30.09 in 10.0 mi West 6.9 mph - N/A   Mostly Cloudy
3:56 PM 60.1 °F 54.0 °F 80% 30.07 in 10.0 mi West 6.9 mph - N/A   Mostly Cloudy
4:07 PM 59.0 °F 53.6 °F 82% 30.06 in 10.0 mi WNW 4.6 mph - N/A   Scattered Clouds
4:56 PM 60.1 °F 52.0 °F 75% 30.05 in 10.0 mi West 8.1 mph - N/A   Partly Cloudy
5:56 PM 60.1 °F 52.0 °F 75% 30.03 in 10.0 mi WSW 10.4 mph - N/A   Partly Cloudy
6:56 PM 59.0 °F 52.0 °F 78% 30.02 in 10.0 mi SW 10.4 mph - N/A   Partly Cloudy
7:56 PM 57.0 °F 52.0 °F 83% 30.01 in 10.0 mi SW 11.5 mph - N/A   Partly Cloudy
8:56 PM 55.0 °F 52.0 °F 89% 30.01 in 8.0 mi SW 9.2 mph - N/A   Partly Cloudy
9:56 PM 54.0 °F 51.1 °F 90% 30.02 in 8.0 mi SW 10.4 mph - N/A   Scattered Clouds
10:33 PM 53.6 °F 51.8 °F 94% 30.00 in 7.0 mi SW 10.4 mph - N/A   Scattered Clouds
10:56 PM 53.1 °F 51.1 °F 93% 30.01 in 7.0 mi SW 9.2 mph - N/A   Scattered Clouds
11:36 PM 53.6 °F 51.8 °F 94% 29.99 in 8.0 mi SW 8.1 mph - N/A   Mostly Cloudy
11:56 PM 53.1 °F 51.1 °F 93% 30.01 in 8.0 mi SW 5.8 mph - N/A   Mostly Cloudy